Date,TemperatureHighF,TemperatureAvgF,TemperatureLowF,DewpointHighF,DewpointAvgF,DewpointLowF,HumidityHigh,HumidityAvg,HumidityLow,PressureMaxIn,PressureMinIn,WindSpeedMaxMPH,WindSpeedAvgMPH,GustSpeedMaxMPH,PrecipitationSumIn
2013-1-1,32,27,23,30,22,15,92,81,73,30.17,30.05,18,4,18,0.00
2013-1-2,23,20,14,18,15,10,88,80,73,30.31,30.14,14,3,20,0.00
2013-1-3,29,22,14,24,17,10,87,81,69,30.29,30.16,28,6,30,0.00
2013-1-4,32,28,25,24,20,18,85,73,59,30.29,30.15,50,9,50,0.00
2013-1-5,35,30,26,27,24,20,85,77,67,30.41,30.16,16,5,28,0.01
2013-1-6,37,34,32,32,30,27,93,84,74,30.29,30.00,30,6,34,0.07
2013-1-7,37,32,29,31,27,24,95,82,64,30.50,30.28,36,6,40,0.04
2013-1-8,42,34,27,30,25,23,84,71,49,30.37,30.28,34,6,36,0.12
2013-1-9,48,41,36,38,32,28,85,68,56,30.53,30.19,38,8,46,0.06
2013-1-10,43,36,27,32,28,25,94,74,52,30.66,30.26,28,3,36,0.00
2013-1-11,55,48,42,51,42,26,94,79,52,30.27,29.86,52,10,52,0.47
2013-1-12,60,55,49,55,51,47,96,88,77,30.05,29.89,34,7,34,0.00
2013-1-13,64,51,37,58,49,35,96,91,79,30.05,29.75,28,6,44,0.40
2013-1-14,36,30,27,35,25,21,96,83,76,30.50,30.05,28,5,28,0.01
2013-1-15,32,28,27,24,22,20,85,78,60,30.49,30.18,18,2,18,0.00
2013-1-16,36,31,28,26,23,20,84,73,59,30.20,29.93,26,4,28,0.00
2013-1-17,35,33,24,30,26,15,86,76,65,30.31,30.05,32,6,32,0.00
2013-1-18,36,27,21,21,16,10,79,62,51,30.54,30.14,56,9,58,0.00
2013-1-19,51,44,36,32,26,20,58,51,43,30.16,29.72,40,11,46,0.00
2013-1-20,48,29,21,34,18,11,76,65,53,30.21,29.69,52,12,64,0.00
2013-1-21,22,18,11,16,11,8,89,75,58,30.19,30.00,30,6,32,0.00
2013-1-22,11,8,6,8,4,2,88,85,77,30.36,30.14,32,4,32,0.00
2013-1-23,15,11,8,11,8,5,88,86,79,30.37,30.17,20,3,20,0.00
2013-1-24,20,15,7,13,8,2,91,75,58,30.65,30.16,28,3,32,0.00
2013-1-25,18,15,12,14,10,6,88,79,69,30.61,30.12,20,3,20,0.00
2013-1-26,25,22,18,22,18,15,92,87,82,30.52,30.16,24,2,24,0.00
2013-1-27,30,24,14,27,17,11,91,76,61,30.60,30.32,30,5,30,0.00
2013-1-28,48,40,29,47,38,25,97,94,84,30.34,29.98,40,8,44,0.83
2013-1-29,62,51,38,55,49,37,98,92,76,30.11,29.66,46,7,46,0.18
2013-1-30,65,56,37,56,51,34,96,83,70,29.67,29.16,56,12,64,0.41
2013-1-31,37,26,20,34,19,11,91,76,62,29.92,29.28,44,13,58,0.01
2013-2-1,20,16,13,15,11,6,90,80,66,30.38,29.90,32,8,32,0.00
2013-2-2,22,17,12,20,14,6,92,85,74,30.37,30.05,24,4,26,0.00
2013-2-3,21,19,17,19,15,12,92,85,75,30.09,29.95,28,5,28,0.00
2013-2-4,25,21,17,22,17,9,93,85,69,30.12,29.95,26,3,28,0.00
2013-2-5,28,24,20,24,20,17,93,86,73,30.01,29.92,16,2,16,0.01
2013-2-6,30,25,18,26,17,13,92,73,56,30.40,30.00,20,4,26,0.03
2013-2-7,45,33,21,30,22,13,74,64,49,30.38,29.92,36,6,40,0.13
2013-2-8,39,31,24,36,28,20,94,87,73,30.31,29.78,46,10,46,0.33
2013-2-9,30,25,21,22,20,17,89,81,70,30.51,30.31,28,3,34,0.01
2013-2-10,50,37,22,34,21,17,81,55,33,30.40,29.85,44,9,48,0.00
2013-2-11,50,41,33,44,34,25,90,75,64,29.95,29.69,50,12,58,0.00
2013-2-12,33,30,25,26,24,23,92,79,71,30.13,29.94,30,5,30,0.00
2013-2-13,35,29,24,27,24,21,92,84,68,29.99,29.82,16,2,16,0.00
2013-2-14,39,34,25,35,30,23,90,85,73,29.94,29.84,36,9,42,0.00
2013-2-15,37,30,26,29,24,18,89,78,66,30.16,29.94,34,4,36,0.01
2013-2-16,28,24,20,21,17,10,90,74,49,30.15,30.03,14,2,16,0.01
2013-2-17,20,17,9,18,12,5,92,83,66,30.33,30.03,22,4,26,0.00
2013-2-18,46,28,9,32,17,5,85,64,50,30.35,29.81,48,10,62,0.03
2013-2-19,48,32,17,38,26,12,93,82,55,30.00,29.63,52,11,52,0.22
2013-2-20,21,19,16,16,13,9,91,77,65,30.29,30.00,30,9,40,0.00
2013-2-21,21,19,17,17,14,11,87,80,70,30.45,30.27,22,4,22,0.00
2013-2-22,38,30,18,36,25,14,93,85,73,30.39,30.00,44,7,46,0.06
2013-2-23,37,32,29,31,27,23,88,80,71,30.04,29.95,24,4,26,0.00
2013-2-24,32,29,26,28,24,21,88,81,73,30.22,29.95,24,6,26,0.00
2013-2-25,41,31,22,29,25,20,94,78,54,30.30,30.14,20,2,20,0.00
2013-2-26,39,35,29,35,29,22,93,79,62,30.17,29.57,54,10,56,0.68
2013-2-27,42,37,33,38,35,30,95,91,83,29.69,29.55,34,5,36,0.33
2013-2-28,34,32,30,32,30,27,95,91,86,29.94,29.63,24,6,24,0.03
2013-3-1,30,27,24,28,23,21,93,86,78,30.09,29.93,24,5,26,0.00
2013-3-2,26,25,22,24,21,19,91,87,82,30.08,30.05,20,4,24,0.00
2013-3-3,25,23,22,22,20,18,92,88,79,30.11,30.05,24,6,26,0.00
2013-3-4,31,24,18,21,19,16,91,79,63,30.21,30.11,18,3,18,0.04
2013-3-5,33,32,31,26,26,25,79,77,75,29.80,29.78,16,3,16,0.02
2013-3-6,45,35,30,32,28,26,91,77,58,30.23,29.78,24,4,24,0.00
2013-3-7,36,32,28,32,30,25,94,90,84,30.43,30.22,16,3,16,0.00
2013-3-8,34,30,26,30,27,24,94,90,85,30.53,30.42,12,1,12,0.00
2013-3-9,54,39,23,35,28,22,96,69,44,30.52,30.16,30,4,32,0.00
2013-3-10,69,59,48,39,34,28,57,41,29,30.16,29.90,40,9,44,0.00
2013-3-11,62,53,42,49,42,35,94,69,38,29.91,29.58,54,9,60,0.97
2013-3-12,42,36,33,38,30,26,87,80,73,30.03,29.77,28,7,30,0.00
2013-3-13,33,30,26,27,24,17,89,76,63,30.21,29.95,40,9,40,0.00
2013-3-14,34,29,26,23,19,16,72,66,57,30.31,30.17,30,7,34,0.00
2013-3-15,40,34,30,32,28,22,95,79,67,30.17,29.92,22,4,26,0.01
2013-3-16,34,31,28,32,29,25,95,93,89,30.09,29.75,26,2,26,0.00
2013-3-17,31,28,25,27,23,17,93,81,67,30.31,30.08,18,2,20,0.09
2013-3-18,40,33,25,39,29,18,96,86,71,30.26,29.65,46,9,48,0.62
2013-3-19,39,31,26,38,24,18,96,75,63,30.00,29.74,42,9,44,0.01
2013-3-20,30,28,22,22,19,15,83,69,63,30.02,29.95,30,9,32,0.00
2013-3-21,29,23,18,26,20,14,93,86,73,29.97,29.92,28,6,28,0.01
2013-3-22,33,28,24,26,22,20,94,81,66,30.08,29.97,24,6,28,0.05
2013-3-23,38,28,18,27,22,16,93,79,60,30.16,30.07,16,2,18,0.04
2013-3-24,34,30,23,26,23,20,91,77,57,30.12,29.60,28,5,32,0.00
2013-3-25,36,32,30,33,30,25,95,91,72,29.88,29.53,26,3,26,0.17
2013-3-26,39,33,31,33,31,30,96,91,76,30.15,29.88,18,2,20,0.05
2013-3-27,40,35,32,32,30,27,96,82,59,30.23,30.13,26,5,28,0.18
2013-3-28,40,36,33,32,30,28,94,81,68,30.32,30.21,18,3,18,0.01
2013-3-29,46,40,32,32,28,23,80,65,44,30.33,30.27,20,4,20,0.00
2013-3-30,56,42,30,30,25,21,77,53,29,30.29,30.04,24,4,26,0.00
2013-3-31,52,48,45,45,34,22,87,60,40,30.04,29.70,36,6,36,0.04
2013-4-1,48,35,30,42,24,13,89,63,40,30.12,29.69,32,8,32,0.00
2013-4-2,37,31,27,23,17,8,74,56,36,30.26,30.12,28,7,30,0.00
2013-4-3,35,31,26,23,17,14,66,56,44,30.51,30.26,32,5,32,0.00
2013-4-4,43,37,26,18,16,15,65,45,34,30.46,30.03,10,2,12,0.00
2013-4-5,42,38,30,32,24,16,78,58,36,30.28,30.00,28,4,28,0.00
2013-4-6,56,41,25,23,17,13,79,43,20,30.34,29.97,34,5,34,0.00
2013-4-7,68,56,43,46,35,16,77,49,23,30.07,29.80,42,9,48,0.00
2013-4-8,71,56,36,54,44,32,88,65,46,30.09,29.84,46,7,46,0.03
2013-4-9,78,61,45,57,48,42,89,66,46,30.15,29.87,30,4,38,0.00
2013-4-10,68,52,41,62,48,40,97,87,70,30.00,29.80,44,3,48,0.48
2013-4-11,48,43,39,46,42,38,97,94,89,29.99,29.64,28,4,28,0.33
2013-4-12,56,44,40,54,41,33,98,89,72,29.89,29.49,30,6,40,0.43
2013-4-13,44,40,37,38,34,30,92,79,68,30.08,29.88,32,7,34,0.06
2013-4-14,54,44,33,38,34,29,88,69,52,30.20,30.02,30,3,30,0.00
2013-4-15,71,61,50,51,45,36,71,56,45,30.08,29.99,44,9,44,0.00
2013-4-16,67,55,47,60,50,45,95,84,69,30.24,29.96,50,6,50,0.11
2013-4-17,62,53,45,47,40,34,97,65,45,30.35,30.09,24,4,26,0.00
2013-4-18,84,70,56,63,57,44,84,65,38,30.11,29.69,54,10,56,0.00
2013-4-19,72,51,40,60,42,28,94,72,54,29.85,29.38,44,10,60,0.29
2013-4-20,41,36,31,32,28,23,92,71,54,30.48,29.85,38,8,38,0.05
2013-4-21,46,37,28,31,27,24,90,67,44,30.69,30.48,26,3,26,0.00
2013-4-22,66,51,34,38,31,26,76,48,33,30.55,30.27,28,6,32,0.00
2013-4-23,73,59,45,42,36,27,62,42,29,30.28,29.91,40,9,44,0.00
2013-4-24,64,47,36,54,42,34,95,86,46,30.20,29.74,36,6,36,0.67
2013-4-25,51,41,32,41,34,30,93,78,47,30.41,30.20,36,5,36,0.08
2013-4-26,55,45,32,37,32,28,93,65,39,30.54,30.41,20,2,22,0.00
2013-4-27,70,56,42,44,36,31,75,49,27,30.45,30.15,16,3,20,0.00
2013-4-28,61,56,53,54,47,35,93,74,40,30.15,29.91,36,6,36,0.19
2013-4-29,66,58,55,56,53,50,95,84,61,30.02,29.91,28,4,32,0.06
2013-4-30,76,64,53,58,54,51,95,72,46,30.15,30.02,36,5,36,0.00
2013-5-1,81,68,56,58,52,46,81,59,35,30.29,30.15,32,6,32,0.00
2013-5-2,79,68,58,50,41,32,47,38,23,30.33,30.19,30,5,34,0.00
2013-5-3,78,68,58,45,39,32,52,37,23,30.21,30.11,38,8,42,0.00
2013-5-4,73,63,53,45,40,34,63,46,25,30.19,30.10,42,6,42,0.00
2013-5-5,76,64,54,44,37,24,62,39,16,30.14,30.02,40,6,40,0.00
2013-5-6,76,64,51,51,43,28,69,48,28,30.09,29.99,36,5,36,0.00
2013-5-7,75,65,56,56,54,51,84,67,47,30.07,29.98,20,2,22,0.00
2013-5-8,72,62,55,59,55,52,94,77,53,30.02,29.96,16,1,18,0.01
2013-5-9,76,64,52,58,50,34,98,66,26,30.02,29.95,16,1,16,0.01
2013-5-10,74,63,48,64,56,42,96,79,42,29.98,29.78,28,4,32,1.27
2013-5-11,54,47,42,49,45,38,97,91,78,29.94,29.82,18,1,20,0.14
2013-5-12,49,42,36,38,34,30,94,76,53,30.13,29.92,32,4,32,0.25
2013-5-13,49,41,36,33,28,25,84,61,41,30.24,30.11,20,2,20,0.00
2013-5-14,66,51,37,43,35,26,76,55,40,30.22,29.85,36,6,36,0.00
2013-5-15,82,68,55,61,53,41,79,60,32,29.87,29.71,36,5,36,0.01
2013-5-16,79,66,50,53,46,35,92,55,21,30.01,29.78,16,1,22,0.00
2013-5-17,75,63,48,54,45,39,82,54,33,30.18,30.01,18,1,20,0.00
2013-5-18,82,68,56,58,50,44,67,55,32,30.18,30.05,22,2,22,0.00
2013-5-19,84,72,61,66,62,54,89,71,50,30.09,29.96,24,3,26,0.00
2013-5-20,88,76,64,70,66,61,91,73,51,30.00,29.86,28,4,28,0.00
2013-5-21,86,77,70,70,67,63,91,72,51,29.90,29.78,28,4,32,0.00
2013-5-22,85,76,65,66,63,61,93,66,47,29.83,29.70,40,4,40,0.35
2013-5-23,73,59,42,64,56,41,96,90,67,30.06,29.73,22,2,24,0.24
2013-5-24,44,42,37,41,36,33,96,81,70,30.39,30.06,26,3,26,0.02
2013-5-25,58,46,34,42,37,32,97,72,45,30.43,30.33,20,2,22,0.00
2013-5-26,64,49,35,45,38,34,97,68,35,30.39,30.30,18,1,18,0.00
2013-5-27,63,51,37,50,43,36,96,77,42,30.33,30.11,22,1,22,0.09
2013-5-28,78,65,52,71,60,49,96,87,68,30.12,29.90,32,3,36,0.82
2013-5-29,86,77,70,68,64,61,84,65,51,30.05,29.93,30,3,32,0.00
2013-5-30,89,78,66,70,63,57,86,63,36,30.15,30.04,24,2,26,0.00
2013-5-31,87,74,66,69,65,63,97,74,49,30.08,29.95,34,3,34,0.81
2013-6-1,83,72,66,71,66,63,97,84,63,29.97,29.75,34,4,36,0.66
2013-6-2,75,68,58,66,61,53,97,81,60,29.96,29.75,28,3,28,0.56
2013-6-3,61,55,45,53,45,36,91,72,41,30.14,29.95,18,2,18,0.00
2013-6-4,68,56,46,53,44,40,91,69,42,30.23,30.13,14,1,16,0.00
2013-6-5,76,61,46,56,49,43,93,67,38,30.21,29.98,14,1,18,0.00
2013-6-6,62,57,54,61,55,50,98,93,73,29.99,29.83,16,0,16,0.43
2013-6-7,59,55,54,57,54,53,99,96,91,29.94,29.87,10,0,12,0.02
2013-6-8,69,60,53,58,54,51,98,84,62,30.14,29.93,14,0,16,0.00
2013-6-9,80,66,51,65,57,50,96,76,50,30.19,30.00,18,1,20,0.00
2013-6-10,72,68,63,69,65,60,98,91,67,30.00,29.75,28,2,28,0.39
2013-6-11,75,67,63,66,63,62,98,89,67,29.93,29.78,20,1,20,0.03
2013-6-12,77,70,63,69,66,61,97,88,70,29.95,29.72,14,0,14,0.03
2013-6-13,70,64,58,67,61,56,98,90,67,29.89,29.47,30,3,32,0.38
2013-6-14,69,60,52,60,56,51,98,86,62,30.12,29.88,14,1,14,0.00
2013-6-15,81,64,48,63,54,48,98,74,39,30.17,30.01,26,0,26,0.00
2013-6-16,79,70,64,68,64,59,95,80,67,30.01,29.84,26,3,32,0.10
2013-6-17,83,71,61,68,63,59,97,78,52,30.03,29.89,18,1,18,1.14
2013-6-18,74,64,53,64,58,49,97,81,62,30.07,29.88,24,2,24,0.00
2013-6-19,72,61,49,56,51,47,98,72,48,30.22,30.06,18,1,18,0.00
2013-6-20,78,64,49,59,50,39,93,64,27,30.28,30.20,16,1,16,0.00
2013-6-21,86,71,53,67,57,48,90,63,42,30.29,30.16,16,1,16,0.00
2013-6-22,89,78,67,73,66,59,81,66,53,30.18,30.03,30,2,30,0.00
2013-6-23,90,79,68,73,68,66,92,71,47,30.13,30.02,30,2,30,0.00
2013-6-24,89,79,67,72,67,62,84,67,47,30.12,29.98,22,1,24,0.00
2013-6-25,87,75,67,73,68,64,97,80,49,30.01,29.85,26,2,26,1.40
2013-6-26,87,73,66,72,68,65,98,84,57,29.94,29.80,16,1,16,0.10
2013-6-27,83,72,67,70,68,65,97,88,60,29.81,29.66,14,1,18,0.04
2013-6-28,76,69,63,68,65,61,99,87,72,29.67,29.52,14,1,14,0.03
2013-6-29,75,67,62,68,64,61,98,90,73,29.73,29.54,12,0,12,0.29
2013-6-30,75,67,61,67,63,60,98,86,72,29.93,29.73,16,1,18,0.01
2013-7-1,72,66,63,67,64,61,96,91,82,30.03,29.89,16,1,16,0.00
2013-7-2,81,70,62,71,65,61,95,85,70,30.08,29.99,14,1,18,0.00
2013-7-3,87,74,64,73,68,62,98,85,55,30.15,30.06,20,2,22,0.21
2013-7-4,80,73,68,73,69,66,97,87,71,30.19,30.13,22,2,26,0.11
2013-7-5,79,72,68,72,69,66,98,91,72,30.16,30.11,20,1,24,0.18
2013-7-6,87,75,67,74,70,66,97,85,60,30.18,30.02,14,1,16,0.14
2013-7-7,80,73,68,70,68,64,96,85,69,30.09,30.00,14,1,30,0.00
2013-7-8,86,73,65,75,68,63,98,85,58,30.11,30.02,16,1,16,1.74
2013-7-9,85,74,68,78,71,67,98,92,74,30.08,29.94,18,1,20,0.13
2013-7-10,86,72,68,78,70,66,99,93,76,29.97,29.77,20,2,24,1.09
2013-7-11,74,68,60,67,61,57,99,81,59,30.06,29.93,14,1,16,0.00
2013-7-12,79,68,58,67,63,57,99,84,60,30.15,30.06,20,1,20,0.00
2013-7-13,86,73,62,71,65,59,93,77,54,30.24,30.14,16,1,20,0.00
2013-7-14,88,78,69,75,71,66,92,79,58,30.28,30.23,16,1,16,0.00
2013-7-15,91,80,72,76,72,70,94,79,56,30.33,30.26,10,0,10,0.00
2013-7-16,89,80,72,77,74,70,97,82,65,30.32,30.25,12,0,14,0.00
2013-7-17,91,81,74,77,74,72,95,79,55,30.30,30.16,14,1,14,0.00
2013-7-18,92,82,74,78,74,71,96,79,52,30.18,30.00,16,1,16,0.00
2013-7-19,92,82,72,79,74,68,90,77,56,30.01,29.81,24,2,26,0.31
2013-7-20,78,71,67,73,69,66,98,93,82,29.94,29.78,26,1,26,3.03
2013-7-21,83,73,64,72,67,63,99,84,62,30.00,29.93,12,0,12,0.00
2013-7-22,76,68,61,73,66,60,99,94,81,29.99,29.80,8,0,10,0.05
2013-7-23,82,71,64,73,67,60,99,88,68,29.83,29.67,18,1,18,0.46
2013-7-24,68,63,54,61,55,52,95,74,60,30.07,29.83,22,2,22,0.00
2013-7-25,76,64,53,57,53,49,95,70,46,30.14,30.06,18,1,24,0.00
2013-7-26,80,66,52,64,58,51,98,76,43,30.14,29.99,14,1,16,0.00
2013-7-27,70,66,63,65,62,58,95,87,74,29.99,29.82,24,2,24,0.20
2013-7-28,70,63,55,62,55,48,97,77,50,30.04,29.86,28,2,28,0.13
2013-7-29,70,62,55,61,56,52,95,82,57,30.22,30.03,16,1,20,0.01
2013-7-30,76,65,56,63,59,55,98,81,59,30.27,30.18,8,0,8,0.00
2013-7-31,77,69,59,66,62,57,96,80,62,30.19,29.94,20,2,20,0.00
2013-8-1,76,68,61,67,64,59,97,87,71,29.94,29.85,14,1,16,0.34
2013-8-2,75,67,59,66,60,56,97,82,53,30.00,29.90,30,2,30,0.21
2013-8-3,68,66,65,67,65,64,98,97,93,29.99,29.93,14,1,14,0.04
2013-8-9,75,69,61,68,63,54,98,82,49,30.04,29.92,4,1,14,0.33
2013-8-10,76,67,59,64,60,56,97,77,56,30.16,30.03,6,0,14,0.00
2013-8-11,82,69,58,65,59,56,94,73,47,30.17,30.07,12,1,14,0.00
2013-8-12,74,68,62,69,64,59,94,86,74,30.09,29.86,14,1,14,0.03
2013-8-13,70,64,56,67,59,48,98,84,63,30.02,29.82,22,1,28,0.18
2013-8-14,69,60,53,56,52,47,94,75,53,30.20,30.02,28,1,28,0.00
2013-8-15,71,61,52,58,53,50,95,79,54,30.23,30.16,12,0,12,0.00
2013-8-16,76,62,51,61,55,50,98,80,55,30.24,30.17,12,0,12,0.00
2013-8-17,81,66,53,64,57,52,98,77,45,30.29,30.23,18,1,18,0.00
2013-8-18,79,67,57,67,61,55,96,81,57,30.25,30.15,14,0,14,0.00
2013-8-19,79,69,61,67,63,57,98,83,50,30.17,30.10,10,1,10,0.00
2013-8-20,83,72,62,67,62,57,89,72,49,30.20,30.11,16,1,16,0.00
2013-8-21,88,74,64,69,64,60,89,72,43,30.21,30.05,20,1,20,0.00
2013-8-22,82,72,66,70,67,64,95,84,64,30.10,30.00,18,1,18,0.00
2013-8-23,81,71,58,68,61,51,98,74,37,30.22,30.03,22,1,22,0.01
2013-8-24,81,67,56,61,57,52,95,72,40,30.35,30.21,18,1,18,0.00
2013-8-25,85,72,58,66,60,54,94,69,48,30.36,30.22,14,1,14,0.00
2013-8-26,86,76,66,70,64,59,85,67,48,30.24,30.00,20,2,20,0.01
2013-8-27,80,75,69,75,71,68,98,87,72,30.04,29.91,24,1,24,0.75
2013-8-28,84,73,69,73,71,63,98,95,86,30.29,29.83,16,1,16,0.09
2013-8-29,85,74,66,75,70,64,99,86,63,30.09,29.98,12,1,12,0.00
2013-8-30,87,75,63,74,68,62,99,80,56,30.04,29.80,20,1,20,0.01
2013-8-31,82,74,68,74,70,66,98,87,72,29.86,29.75,18,1,18,0.00
2013-9-1,81,72,66,74,69,65,99,91,73,29.86,29.77,18,1,18,0.08
2013-9-2,77,70,64,72,67,60,99,90,74,29.88,29.75,10,1,10,0.00
2013-9-3,66,62,57,60,57,54,93,84,74,30.07,29.88,18,1,18,0.00
2013-9-4,77,65,55,63,58,53,95,80,52,30.14,30.06,16,1,22,0.00
2013-9-5,69,64,50,64,55,48,93,75,51,30.27,30.07,18,1,18,0.00
2013-9-6,75,59,46,57,51,45,96,76,38,30.32,30.15,14,1,14,0.00
2013-9-7,79,68,56,68,58,48,86,70,50,30.15,29.94,18,2,18,0.00
2013-9-8,73,67,52,67,61,50,97,83,60,30.10,29.92,22,1,22,0.00
2013-9-9,79,67,54,71,62,50,88,82,72,30.10,30.00,26,3,26,0.00
2013-9-10,96,83,74,76,72,69,87,70,44,30.07,29.99,22,3,26,0.00
2013-9-11,93,82,73,76,72,68,91,73,45,30.10,29.96,16,2,18,0.03
2013-9-12,73,68,56,69,65,54,98,90,77,29.98,29.83,24,1,28,0.95
2013-9-13,60,56,52,59,52,44,98,86,66,30.12,29.89,22,2,28,0.35
2013-9-14,64,54,45,51,47,42,95,76,55,30.22,30.11,16,1,16,0.00
2013-9-15,68,58,48,56,51,46,96,79,55,30.21,30.09,18,2,18,0.03
2013-9-16,63,57,50,57,54,48,98,90,75,30.37,30.14,20,1,22,0.01
2013-9-17,71,55,41,49,45,39,97,71,35,30.46,30.29,18,1,18,0.00
2013-9-18,76,62,51,60,52,44,89,71,51,30.29,30.11,20,3,20,0.00
2013-9-19,79,68,59,68,63,58,96,87,67,30.13,30.00,32,3,32,0.00
2013-9-20,82,71,65,72,68,63,98,88,73,30.02,29.78,32,5,32,0.60
2013-9-21,68,62,55,67,61,54,98,96,79,29.84,29.68,12,1,12,1.61
2013-9-22,57,54,48,56,48,44,98,83,67,30.09,29.84,8,1,16,0.02
2013-9-23,59,51,44,49,47,42,97,86,66,30.22,30.09,10,0,10,0.01
2013-9-24,68,52,41,55,47,40,98,84,58,30.20,30.04,18,1,18,0.00
2013-9-25,75,56,44,59,50,40,98,81,45,30.06,29.96,14,0,14,0.00
2013-9-26,74,58,46,57,50,45,98,79,42,30.17,30.01,16,1,16,0.00
2013-9-27,71,60,52,58,54,50,96,80,55,30.26,30.16,18,1,18,0.00
2013-9-28,77,64,53,60,55,51,95,75,49,30.27,30.13,24,2,26,0.00
2013-9-29,73,63,55,63,57,51,93,81,65,30.14,30.01,22,4,34,0.01
2013-9-30,64,62,59,62,60,58,97,95,90,30.04,29.99,14,1,16,0.05
2013-10-1,77,65,57,65,60,56,98,84,59,30.10,30.00,18,1,18,0.01
2013-10-2,76,66,56,68,61,53,94,87,73,30.11,30.03,14,0,14,0.00
2013-10-3,79,68,55,71,62,53,94,84,71,30.12,30.01,26,2,26,0.00
2013-10-4,78,70,65,69,66,64,95,88,70,30.08,30.03,18,1,18,0.00
2013-10-5,78,69,66,70,67,64,98,93,73,30.08,29.96,22,1,22,0.35
2013-10-6,78,71,56,69,66,54,96,86,69,29.96,29.69,46,4,46,0.46
2013-10-7,57,53,47,54,48,43,97,82,64,30.16,29.73,38,3,38,0.84
2013-10-8,70,55,45,54,47,43,98,77,42,30.35,30.16,12,1,16,0.00
2013-10-9,72,56,44,50,46,42,96,72,37,30.38,30.27,24,1,24,0.00
2013-10-10,73,55,43,53,45,39,94,71,36,30.29,30.15,22,1,22,0.00
2013-10-11,76,57,44,58,50,43,98,80,40,30.18,30.10,10,0,10,0.00
2013-10-12,77,64,50,65,56,41,92,75,56,30.16,30.10,18,2,18,0.00
2013-10-13,68,63,57,62,59,55,95,89,80,30.33,30.15,22,2,22,0.01
2013-10-14,64,54,46,55,48,43,96,82,60,30.41,30.30,20,1,20,0.00
2013-10-15,63,56,43,60,53,41,98,91,84,30.30,29.97,30,3,30,0.01
2013-10-16,69,60,51,64,58,48,97,92,77,29.98,29.82,22,3,22,1.08
2013-10-17,60,50,44,50,47,43,96,89,62,29.95,29.80,10,1,26,0.14
2013-10-18,63,53,44,48,45,41,92,76,52,30.02,29.89,44,3,44,0.00
2013-10-19,53,46,41,46,43,39,96,90,74,29.96,29.78,26,2,30,0.33
2013-10-20,59,48,39,44,40,36,93,75,51,30.02,29.93,24,3,24,0.01
2013-10-21,63,54,48,52,44,40,95,69,49,30.01,29.86,34,5,34,0.21
2013-10-22,50,44,39,48,35,31,95,74,50,30.00,29.87,30,2,30,0.09
2013-10-23,46,40,34,40,34,30,96,80,60,29.99,29.83,22,2,22,0.36
2013-10-24,35,34,33,34,32,31,97,96,94,30.21,29.95,18,1,18,0.41
2013-10-25,46,38,34,38,34,30,97,86,65,30.39,30.20,34,2,34,1.28
2013-10-26,45,40,36,39,32,28,95,71,58,30.26,29.90,44,6,44,0.17
2013-10-27,50,42,36,38,36,34,94,80,58,30.14,30.02,18,2,18,0.00
2013-10-28,55,43,36,44,38,33,94,81,60,30.40,30.13,16,1,16,0.00
2013-10-29,58,44,33,42,37,31,96,79,48,30.47,30.30,14,1,14,0.00
2013-10-30,67,53,42,53,44,38,87,71,44,30.30,30.07,20,2,20,0.00
2013-10-31,65,60,57,59,57,52,96,90,77,30.07,29.31,48,8,52,0.64
2013-11-1,61,53,47,58,47,42,95,81,72,29.73,29.24,42,6,50,0.25
2013-11-2,47,45,42,44,43,40,96,93,84,30.07,29.70,22,2,22,1.31
2013-11-3,45,38,30,40,33,26,96,82,61,30.54,30.07,20,2,20,0.00
2013-11-4,46,38,30,28,24,21,82,59,40,30.60,30.44,36,6,36,0.00
2013-11-5,59,51,43,44,37,28,72,60,53,30.48,30.31,34,6,34,0.00
2013-11-6,66,56,49,56,46,35,95,70,56,30.31,29.92,40,8,42,0.32
2013-11-7,49,41,37,47,36,28,96,81,61,30.17,29.96,30,5,30,0.41
2013-11-8,41,38,33,34,29,26,94,72,56,30.34,30.13,24,5,24,0.10
2013-11-9,57,46,33,44,34,27,78,63,45,30.31,29.92,54,8,54,0.02
2013-11-10,53,45,41,43,34,28,74,66,55,30.31,29.96,44,9,44,0.00
2013-11-11,47,39,30,40,33,29,96,79,55,30.30,30.07,14,4,40,0.33
2013-11-12,34,30,28,29,26,20,96,82,66,30.56,30.27,24,3,24,0.07
2013-11-13,37,32,28,25,21,18,80,65,51,30.59,30.32,36,5,36,0.10
2013-11-14,50,40,30,24,22,19,70,50,31,30.33,30.14,34,7,36,0.18
2013-11-15,51,46,39,33,26,22,60,47,37,30.18,30.11,34,6,34,0.00
2013-11-16,60,51,42,51,44,32,82,75,60,30.24,29.95,40,8,40,0.00
2013-11-17,62,59,52,57,53,41,93,82,65,29.95,29.43,66,13,66,0.41
2013-11-18,52,43,36,42,34,25,79,72,66,30.15,29.58,56,12,56,0.00
2013-11-19,38,35,27,28,26,24,88,72,59,30.48,30.15,20,3,20,0.00
2013-11-20,47,36,25,26,21,17,91,58,31,30.52,30.38,34,4,34,0.00
2013-11-21,46,41,37,41,32,18,91,72,41,30.43,30.25,40,7,40,0.07
2013-11-22,48,43,35,47,41,30,98,93,80,30.37,30.16,32,5,32,0.27
2013-11-23,35,29,21,30,21,6,90,70,53,30.47,30.26,34,9,40,0.00
2013-11-24,23,22,20,16,12,6,78,65,51,30.61,30.46,44,8,44,0.00
2013-11-25,35,26,18,24,16,12,83,66,45,30.54,30.23,40,7,40,0.00
2013-11-26,34,32,31,31,28,20,96,85,58,30.24,29.90,22,2,22,0.00
2013-11-27,32,28,24,31,22,16,95,81,68,30.20,29.86,38,6,38,0.00
2013-11-28,28,25,21,21,19,15,89,75,64,30.49,30.20,24,4,26,0.00
2013-11-29,32,28,25,24,22,20,86,78,68,30.73,30.49,14,1,14,0.04
2013-11-30,41,33,26,29,24,19,77,70,57,30.68,30.22,36,8,36,0.06
2013-12-1,42,38,35,32,30,28,84,74,66,30.22,30.02,22,4,22,0.05
2013-12-2,39,36,31,34,32,28,93,86,76,30.02,29.92,6,0,8,0.00
2013-12-3,47,40,31,41,34,28,91,80,71,29.98,29.91,20,3,20,0.00
2013-12-4,59,52,44,50,45,39,83,77,72,29.99,29.80,36,6,36,0.00
2013-12-5,61,49,32,56,44,30,94,82,73,30.16,29.77,52,7,56,0.02
2013-12-6,33,30,26,31,27,24,95,90,77,30.40,30.13,14,1,14,0.01
2013-12-7,27,24,22,25,18,15,93,78,69,30.67,30.40,18,3,18,0.01
2013-12-8,29,24,20,26,18,15,89,77,66,30.66,30.10,38,4,38,0.00
2013-12-9,34,31,25,32,26,18,95,84,72,30.20,29.99,38,7,40,0.00
2013-12-10,27,23,21,18,13,6,77,65,42,30.32,30.05,44,8,44,0.00
2013-12-11,24,21,17,21,15,9,93,80,68,30.48,30.30,28,6,28,0.00
2013-12-12,20,16,12,10,6,0,84,64,44,30.52,30.30,44,7,44,0.00
2013-12-13,30,23,18,20,15,6,83,70,60,30.36,30.27,26,3,26,0.01
2013-12-14,33,28,24,32,26,20,95,91,78,30.34,29.73,26,2,26,0.00
2013-12-15,31,23,15,30,20,11,96,88,80,30.10,29.72,32,5,32,0.00
2013-12-16,24,18,14,18,13,10,89,81,67,30.26,30.08,28,4,28,0.02
2013-12-17,29,25,20,25,22,18,94,87,77,30.12,29.99,30,5,30,0.01
2013-12-18,30,26,24,24,21,18,91,81,67,30.22,30.04,42,7,42,0.00
2013-12-19,46,40,30,36,29,19,74,66,56,30.10,30.00,36,6,42,0.35
2013-12-20,55,47,43,53,44,36,95,87,67,30.00,29.82,36,8,36,0.28
2013-12-21,57,46,37,55,45,36,98,96,91,29.87,29.55,38,4,38,1.92
2013-12-22,61,46,35,56,44,35,98,92,77,30.03,29.48,74,7,74,0.29
2013-12-23,38,32,28,37,28,19,97,85,69,30.37,30.02,28,6,30,0.02
2013-12-24,28,20,17,22,15,10,91,79,66,30.60,30.33,30,7,32,0.00
2013-12-25,27,21,15,22,15,11,87,76,61,30.58,30.24,26,4,42,0.00
2013-12-26,30,28,24,27,22,18,94,82,71,30.40,30.15,30,5,30,0.00
2013-12-27,40,34,25,31,27,19,80,74,69,30.41,30.23,32,5,32,0.04
2013-12-28,54,44,38,36,33,30,75,64,45,30.23,30.02,36,7,36,0.01
2013-12-29,44,40,26,39,32,24,94,75,51,30.02,29.74,32,6,32,0.04
2013-12-30,26,20,17,24,17,15,94,90,86,30.32,29.99,16,1,18,0.00
2013-12-31,21,18,16,19,15,11,92,87,76,30.40,30.13,30,5,30,0.00
2014-1-1,23,20,19,20,18,16,93,89,85,30.44,30.22,14,1,16,0.00
2014-1-2,21,17,12,19,15,9,92,91,88,30.22,29.94,42,7,44,0.00